Location: City of Moscow
(46.7306°N, 116.9989°W)
Time: 18:12:56
(UTC+00:00)

USA 59 Rocket - Pass Details

Date: 11 December 2025
Orbit: 369 x 1675 km, 63.3° (Epoch: 15 January)

Event Time Altitude Azimuth Distance (km) Brightness Sun altitude
Exits shadow 12:40:37 22° 178° (S) 1,410 1.9 -26.8°
Drops below altitude 10° 12:42:46 10° 166° (SSE) 2,217 3.1 -26.4°
Sets 12:45:41 0° 160° (SSE) 3,373 4.2 -25.9°
